Weather History for KGTF - October, 2011

Change the Weather History Date:

Friday, October 7, 2011

  Actual Average Record
Temperature  
Mean Temperature 45 °F 48 °F  
Max Temperature 47 °F 62 °F 88 °F (1895)
Min Temperature 42 °F 35 °F 15 °F (1985)
Degree Days  
Heating Degree Days 20 17  
Month to date heating degree days 55 110  
Since 1 July heating degree days 231 517  
Cooling Degree Days 0 0  
Month to date cooling degree days 0 0  
Year to date cooling degree days 365 297  
Moisture  
Dew Point 43 °F    
Average Humidity 90    
Maximum Humidity 96    
Minimum Humidity 83    
Precipitation  
Precipitation 0.81 in 0.03 in 0.81 in (2011)
Month to date precipitation 1.83 0.24  
Year to date precipitation 15.44 12.99  
Snow  
Snow 0.00 in 0.10 in 5.50 in (1985)
Month to date snowfall 0.0 0.7  
Since 1 July snowfall 0.0 2.2  
Since 1 September snowfall 0.0 1.9  
Snow Depth 0.00 in    
Sea Level Pressure  
Sea Level Pressure 29.79 in    
Wind  
Wind Speed 11 mph (WNW)    
Max Wind Speed 23 mph    
Max Gust Speed 30 mph    
Visibility 7 miles    
Events Rain    
T = Trace of Precipitation, MM = Missing Value Source: NWS Daily Summary

Daily Weather History Graph

Daily Weather History Graph

Search for Another Location

Airport or City:

Trip Planner

Search our weather history database for the weather conditions in past years. The results will help you decide how hot, cold, wet, or windy it might be!

Date:

Astronomy

Oct. 07, 2011 Rise Set
Actual Time 7:32 AM MDT 6:53 PM MDT
Civil Twilight 7:01 AM MDT 7:24 PM MDT
Nautical Twilight 6:26 AM MDT 7:59 PM MDT
Astronomical Twilight 5:50 AM MDT 8:35 PM MDT
Moon 4:50 PM MDT (10/7) 3:09 AM MDT (10/7)
Length of Visible Light 12h 22m
Length of Day
11h 20m
Waxing Gibbous, 84% of the Moon is Illuminated
Oct 7
Waxing Gibbous
Oct 11
Full
Oct 19
Last Quarter
Oct 26
New
Nov 2
First Quarter

Hourly Weather History & Observations

Time (MDT) Temp. Windchill Dew Point Humidity Pressure Visibility Wind Dir Wind Speed Gust Speed Precip Events Conditions
12:53 AM 44.1 °F 36.5 °F 43.0 °F 96% 29.70 in 10.0 mi NW 17.3 mph - 0.02 in   Overcast
1:53 AM 44.1 °F 35.7 °F 42.1 °F 93% 29.69 in 10.0 mi NW 20.7 mph 27.6 mph 0.00 in Rain Light Rain
2:28 AM 44.6 °F 36.6 °F 42.8 °F 93% 29.65 in 10.0 mi NW 19.6 mph - 0.00 in   Overcast
2:53 AM 44.1 °F 36.5 °F 42.1 °F 93% 29.69 in 10.0 mi NW 17.3 mph 24.2 mph 0.00 in   Overcast
3:53 AM 45.0 °F 37.6 °F 42.1 °F 90% 29.68 in 10.0 mi NW 17.3 mph - N/A   Overcast
4:01 AM 44.6 °F 36.4 °F 42.8 °F 93% 29.64 in 10.0 mi NW 20.7 mph - N/A   Overcast
4:53 AM 45.0 °F 37.9 °F 42.1 °F 90% 29.68 in 10.0 mi NW 16.1 mph 25.3 mph N/A   Overcast
5:48 AM 44.6 °F 38.1 °F 42.8 °F 93% 29.64 in 10.0 mi NW 13.8 mph - N/A   Overcast
5:53 AM 45.0 °F 38.5 °F 42.1 °F 90% 29.68 in 10.0 mi NW 13.8 mph - N/A   Overcast
6:53 AM 46.0 °F 41.9 °F 43.0 °F 89% 29.67 in 10.0 mi West 8.1 mph - N/A   Overcast
7:53 AM 46.0 °F 40.6 °F 42.1 °F 86% 29.68 in 10.0 mi West 11.5 mph - N/A   Overcast
8:53 AM 46.0 °F 40.6 °F 43.0 °F 89% 29.70 in 7.0 mi West 11.5 mph - 0.02 in Rain Light Rain
9:53 AM 46.4 °F 42.9 °F 44.6 °F 93% 29.66 in 10.0 mi WSW 6.9 mph - N/A   Overcast
10:51 AM 46.4 °F 41.9 °F 44.6 °F 93% 29.68 in 4.0 mi WSW 9.2 mph - 0.01 in Rain Rain
10:53 AM 46.4 °F 41.9 °F 44.6 °F 93% 29.68 in 3.0 mi WSW 9.2 mph - N/A Rain Rain
11:09 AM 46.4 °F 41.9 °F 44.6 °F 93% 29.68 in 3.0 mi WSW 9.2 mph - 0.04 in Rain Rain
11:18 AM 46.4 °F 41.9 °F 44.6 °F 93% 29.68 in 2.5 mi SW 9.2 mph - 0.07 in Rain Heavy Rain
11:53 AM 46.0 °F 41.9 °F 45.0 °F 96% 29.73 in 3.0 mi WSW 8.1 mph - 0.13 in Rain Light Rain
12:13 PM 46.4 °F 42.4 °F 44.6 °F 93% 29.69 in 4.0 mi SW 8.1 mph - 0.04 in Rain Rain
12:40 PM 46.4 °F 41.5 °F 46.4 °F 100% 29.71 in 5.0 mi SW 10.4 mph - 0.07 in Rain Rain
12:47 PM 46.4 °F 41.5 °F 46.4 °F 100% 29.72 in 4.0 mi West 10.4 mph - 0.09 in Rain Rain
12:53 PM 46.9 °F - 45.0 °F 93% 29.75 in 4.0 mi West 10.4 mph - 0.10 in Rain Rain
1:13 PM 46.4 °F 41.5 °F 46.4 °F 100% 29.73 in 2.5 mi WSW 10.4 mph - N/A Rain Rain
1:22 PM 46.4 °F 41.9 °F 44.6 °F 93% 29.73 in 3.0 mi WSW 9.2 mph - 0.08 in Rain Rain
1:32 PM 46.4 °F 41.9 °F 46.4 °F 100% 29.74 in 2.5 mi WSW 9.2 mph - 0.10 in Rain Rain
1:42 PM 46.4 °F 42.4 °F 46.4 °F 100% 29.75 in 2.5 mi West 8.1 mph - 0.12 in Rain Rain
1:53 PM 46.9 °F - 45.0 °F 93% 29.78 in 2.5 mi WNW 12.7 mph 17.3 mph 0.16 in Rain Rain
2:09 PM 46.4 °F 41.1 °F 44.6 °F 93% 29.76 in 2.5 mi NW 11.5 mph - N/A Rain Rain
2:43 PM 46.4 °F 40.7 °F 44.6 °F 93% 29.77 in 6.0 mi NW 12.7 mph - 0.09 in Rain Light Rain
2:53 PM 46.0 °F 41.0 °F 44.1 °F 93% 29.81 in 5.0 mi NW 10.4 mph - 0.10 in Rain Rain
3:09 PM 46.4 °F 41.5 °F 44.6 °F 93% 29.78 in 4.0 mi NW 10.4 mph - 0.03 in Rain Rain
3:25 PM 46.4 °F 41.5 °F 44.6 °F 93% 29.79 in 5.0 mi NNW 10.4 mph - 0.04 in Rain Light Rain
3:34 PM 46.4 °F 41.5 °F 44.6 °F 93% 29.80 in 5.0 mi NNW 10.4 mph - 0.05 in Rain Light Rain
3:47 PM 46.4 °F 39.8 °F 44.6 °F 93% 29.80 in 6.0 mi NW 16.1 mph 21.9 mph 0.06 in Rain Light Rain
3:53 PM 46.0 °F 39.0 °F 44.1 °F 93% 29.84 in 7.0 mi NW 17.3 mph 23.0 mph 0.06 in Rain Light Rain
4:08 PM 46.4 °F 40.1 °F 42.8 °F 87% 29.81 in 7.0 mi NNW 15.0 mph 24.2 mph 0.01 in Rain Light Rain
4:53 PM 45.0 °F 37.9 °F 43.0 °F 93% 29.88 in 7.0 mi NW 16.1 mph 21.9 mph 0.04 in Rain Light Rain
5:53 PM 45.0 °F 38.5 °F 42.1 °F 90% 29.91 in 8.0 mi NW 13.8 mph 23.0 mph 0.03 in Rain Light Rain
6:53 PM 44.1 °F 37.7 °F 39.9 °F 85% 29.94 in 10.0 mi NW 12.7 mph - 0.02 in Rain Light Rain
7:53 PM 44.1 °F 38.6 °F 41.0 °F 89% 29.98 in 9.0 mi WNW 10.4 mph - 0.01 in Rain Light Rain
8:53 PM 43.0 °F 39.5 °F 41.0 °F 93% 30.02 in 10.0 mi WSW 5.8 mph - 0.02 in Rain Light Rain
9:53 PM 43.0 °F 39.5 °F 41.0 °F 93% 30.05 in 10.0 mi West 5.8 mph - 0.03 in Rain Light Rain
10:19 PM 42.8 °F 40.1 °F 41.0 °F 93% 30.01 in 9.0 mi WSW 4.6 mph - 0.01 in Rain Light Rain
10:37 PM 42.8 °F 38.6 °F 41.0 °F 93% 30.02 in 10.0 mi West 6.9 mph - 0.02 in Rain Light Rain
10:53 PM 43.0 °F 40.3 °F 41.0 °F 93% 30.07 in 10.0 mi WSW 4.6 mph - 0.02 in Rain Light Rain
11:31 PM 42.8 °F 39.3 °F 41.0 °F 93% 30.04 in 10.0 mi West 5.8 mph - 0.01 in Rain Light Rain
11:51 PM 42.8 °F 38.6 °F 41.0 °F 93% 30.05 in 10.0 mi West 6.9 mph - 0.02 in Rain Light Rain
11:53 PM 42.1 °F 38.4 °F 41.0 °F 96% 30.10 in 10.0 mi West 5.8 mph - 0.02 in Rain Light Rain